This is the latest recevied weather packets stored in our database for station/object SV9TNF-52. If no packets are shown the sender has not sent any weather packets the latest 10 day(s).
| Time | Temp. | Humidity | Pressure | Rain* | Wind** | Luminosity | Snow |
|---|---|---|---|---|---|---|---|
| 1788347924 | 32.78° C | 44% | 1020 hPa | 0 mm | 4.47 m/s, 355° | - | - |
| 1788347624 | 32.22° C | 46% | 1020 hPa | 0 mm | 4.47 m/s, 126° | - | - |
| 1788347323 | 32.78° C | 50% | 1020 hPa | 0 mm | 4.02 m/s, 349° | - | - |
| 1788347023 | 32.78° C | 49% | 1020 hPa | 0 mm | 5.36 m/s, 248° | - | - |
| 1788346723 | 32.78° C | 50% | 1020 hPa | 0 mm | 4.92 m/s, 225° | - | - |
| 1788346423 | 32.78° C | 49% | 1020 hPa | 0 mm | 2.68 m/s, 49° | - | - |
| 1788346123 | 32.22° C | 50% | 1020 hPa | 0 mm | 4.92 m/s, 15° | - | - |
| 1788345823 | 32.78° C | 50% | 1020 hPa | 0 mm | 5.36 m/s, 29° | - | - |
| 1788345523 | 32.78° C | 50% | 1020 hPa | 0 mm | 6.71 m/s, 241° | - | - |
| 1788345223 | 33.33° C | 51% | 1020.3 hPa | 0 mm | 5.81 m/s, 162° | - | - |
| 1788344922 | 32.78° C | 49% | 1020.3 hPa | 0 mm | 4.47 m/s, 13° | - | - |
| 1788344622 | 33.33° C | 50% | 1020.3 hPa | 0 mm | 5.81 m/s, 308° | - | - |
| 1788344323 | 32.78° C | 51% | 1020.3 hPa | 0 mm | 4.92 m/s, 342° | - | - |
| 1788344022 | 32.22° C | 53% | 1020.3 hPa | 0 mm | 4.02 m/s, 276° | - | - |
| 1788343722 | 31.67° C | 53% | 1020.3 hPa | 0 mm | 6.26 m/s, 271° | - | - |
| 1788343422 | 32.22° C | 51% | 1020.3 hPa | 0 mm | 4.92 m/s, 237° | - | - |
| 1788343122 | 31.67° C | 53% | 1020.3 hPa | 0 mm | 3.58 m/s, 221° | - | - |
| 1788342822 | 31.67° C | 53% | 1020.3 hPa | 0 mm | 3.13 m/s, 38° | - | - |
| 1788342522 | 32.22° C | 52% | 1020.3 hPa | 0 mm | 4.47 m/s, 102° | - | - |
| 1788342222 | 31.67° C | 53% | 1020.3 hPa | 0 mm | 4.92 m/s, 11° | - | - |
| 1788341922 | 31.11° C | 54% | 1020.3 hPa | 0 mm | 6.71 m/s, 52° | - | - |
| 1788341621 | 32.22° C | 51% | 1020.7 hPa | 0 mm | 3.13 m/s, 33° | - | - |
| 1788341321 | 32.22° C | 51% | 1020.7 hPa | 0 mm | 4.92 m/s, 282° | - | - |
| 1788341021 | 32.78° C | 49% | 1020.7 hPa | 0 mm | 4.92 m/s, 307° | - | - |
| 1788340721 | 32.78° C | 49% | 1020.7 hPa | 0 mm | 3.58 m/s, 260° | - | - |
* Rain latest hour (hover to see other rain measurements)
** Current wind speed in m/s (hover to see current wind gust speed)